K7TUS-6 Weather Reports


Display with metric or nautical units.
time (UTC)temp
F
wind
direction
speed
MPH
gust
MPH
rain 1hr
in
rain 24hr
in
rain mn
in
humidity
%
barometer
mb
20260902020504 66 115 2.0 3.0 0.00 0.00 0.00 11 992.3
20260902020003 65 162 1.0 2.0 0.00 0.00 0.00 15 991.9
20260902014007 62 353 2.0 3.0 0.00 0.00 0.00 27 992.1
20260902013506 62 37 2.0 3.0 0.00 0.00 0.00 35 991.5
20260902005007 65 357 2.0 2.0 0.00 0.00 0.00 27 992.5
20260902003505 68 11 2.0 2.0 0.00 0.00 0.00 28 992.9
20260902002003 68 353 3.0 4.0 0.00 0.00 0.00 23 992.6
20260901235005 73 58 2.0 2.0 0.00 0.00 0.00 16 992.6
20260901233504 78 74 2.0 2.0 0.00 0.00 0.00 13 992.4
20260901231507 72 73 2.0 2.0 0.00 0.00 0.00 19 991.6
20260901230005 68 352 3.0 5.0 0.00 0.00 0.00 17 991.8
20260901225505 70 75 1.0 2.0 0.00 0.00 0.00 19 992.3
20260901220004 73 12 2.0 3.0 0.00 0.00 0.00 9 992.9
20260901214008 72 85 3.0 3.0 0.00 0.00 0.00 13 992.2
20260901212506 72 60 3.0 4.0 0.00 0.00 0.00 16 993.5
20260901212006 70 65 2.0 2.0 0.00 0.00 0.00 21 993.0
20260901211005 72 40 2.0 3.0 0.00 0.00 0.00 20 992.9
20260901210504 70 89 2.0 2.0 0.00 0.00 0.00 22 992.7
20260901205009 69 2 3.0 3.0 0.00 0.00 0.00 22 993.0
20260901204007 68 52 2.0 2.0 0.00 0.00 0.00 25 992.9
20260901202506 70 56 2.0 2.0 0.00 0.00 0.00 21 993.2
20260901200503 72 72 2.0 2.0 0.00 0.00 0.00 18 994.4
20260901195507 69 39 2.0 2.0 0.00 0.00 0.00 23 993.4
20260901194005 75 73 2.0 2.0 0.00 0.00 0.00 13 992.5
20260901191008 73 75 1.0 2.0 0.00 0.00 0.00 20 994.0
20260901185506 72 87 2.0 2.0 0.00 0.00 0.00 19 993.9
20260901183504 70 51 2.0 4.0 0.00 0.00 0.00 17 992.9
20260901181507 73 66 2.0 3.0 0.00 0.00 0.00 12 993.8
20260901180006 73 100 1.0 2.0 0.00 0.00 0.00 13 993.2
20260901173008 76 99 2.0 3.0 0.00 0.00 0.00 9 994.8
20260901170505 78 61 2.0 3.0 0.00 0.00 0.00 7 993.9
20260901163007 73 44 2.0 4.0 0.00 0.00 0.00 10 993.8
20260901150004 72 141 3.0 3.0 0.00 0.00 0.00 9 993.7
20260901143005 70 62 2.0 2.0 0.00 0.00 0.00 13 992.6
20260901135004 64 54 2.0 3.0 0.00 0.00 0.00 19 991.7
20260901133502 62 6 2.0 3.0 0.00 0.00 0.00 23 991.5
20260901132007 60 288 2.0 2.0 0.00 0.00 0.00 25 991.1
20260901130005 61 13 1.0 1.0 0.00 0.00 0.00 25 991.9
20260901124504 60 50 1.0 1.0 0.00 0.00 0.00 25 990.8
20260901124002 61 7 1.0 2.0 0.00 0.00 0.00 23 991.4
20260901120004 59 2 1.0 2.0 0.00 0.00 0.00 27 990.6
20260901114502 60 43 1.0 2.0 0.00 0.00 0.00 28 991.1
20260901114008 60 83 1.0 2.0 0.00 0.00 0.00 32 991.0
20260901095002 61 335 2.0 5.0 0.00 0.00 0.00 19 992.6
20260901084508 58 346 2.0 4.0 0.00 0.00 0.00 29 991.6
20260901082505 59 357 2.0 4.0 0.00 0.00 0.00 27 990.9
20260901082010 59 326 2.0 3.0 0.00 0.00 0.00 25 991.4
20260901080008 59 335 2.0 4.0 0.00 0.00 0.00 26 991.1
20260901072005 62 43 1.0 2.0 0.00 0.00 0.00 21 991.7
20260901071504 62 89 1.0 2.0 0.00 0.00 0.00 22 991.4
20260901065508 58 309 4.0 6.0 0.00 0.00 0.00 26 991.9
20260901064006 59 343 3.0 6.0 0.00 0.00 0.00 28 991.9
20260901062504 59 346 2.0 3.0 0.00 0.00 0.00 29 992.0
20260901061503 59 347 1.0 4.0 0.00 0.00 0.00 29 992.1
20260901061008 59 102 1.0 3.0 0.00 0.00 0.00 29 991.8
20260901055007 59 36 2.0 4.0 0.00 0.00 0.00 27 991.6
20260901053005 58 341 4.0 4.0 0.00 0.00 0.00 32 991.2
20260901050008 58 314 1.0 1.0 0.00 0.00 0.00 29 991.7
20260901044507 58 3 1.0 2.0 0.00 0.00 0.00 35 991.4
20260901044006 59 10 1.0 2.0 0.00 0.00 0.00 34 992.0
20260901043524 59 137 1.0 1.0 0.00 0.00 0.00 30 991.4
20260901042505 59 35 1.0 2.0 0.00 0.00 0.00 35 992.3